Location: Six Mile Lake
(44.9000°N, 79.7170°W)
Time: 00:28:58
(UTC-04:00)

ESTCUBE 1 - Pass Details

Date: 03 July 2022
Orbit: 646 x 657 km, 97.9° (Epoch: 13 August)

Event Time Altitude Azimuth Distance (km) Brightness Sun altitude
Exits shadow 00:33:19 16° 241° (WSW) 1,705 ? -21.2°
Maximum altitude 00:34:59 19° 268° (W) 1,553 ? -21.3°
Drops below altitude 10° 00:38:08 10° 313° (NW) 2,056 ? -21.4°
Sets 00:40:58 0° 332° (NNW) 2,975 ? -21.5°
